Location: Hard
(49.9417°N, 12.0858°E)
Time: 07:24:19
(UTC+00:00)

USA 229 DEB - Pass Details

Date: 07 June 2020
Orbit: 983 x 1229 km, 63.4° (Epoch: 24 June)

Event Time Altitude Azimuth Distance (km) Brightness Sun altitude
Rises 01:06:31 0° 316° (NW) 3,952 6.9 -12.9°
Reaches altitude 10° 01:09:11 10° 313° (NW) 3,025 6.3 -12.7°
Maximum altitude 01:16:16 59° 236° (SW) 1,348 4.0 -12.1°
Drops below altitude 10° 01:23:41 10° 160° (SSE) 3,153 5.8 -11.5°
Sets 01:26:31 0° 156° (SSE) 4,130 6.4 -11.3°
